{"data":{"norad_id":56132,"intl_designator":"2023-046AS","name":"STARLINK-6071","alt_names":[],"object_type":"PAYLOAD","status":"ACTIVE","operator":null,"country":"US","launch_date":"2023-03-29","launch_site_code":"AFETR","launch_vehicle":null,"mission":null,"orbit_class":"UNKNOWN","rcs_meters":null,"size_class":null,"mass_kg":null,"dimensions":null,"purposes":["comms"],"wikipedia_slug":null,"has_3d_model":false,"image_url":null,"decayed_at":null,"tle_current":{"epoch":"2026-09-20T08:13:36.505632Z","epoch_age_seconds":122495,"freshness":"FRESH","line1":"1 56132U 23046AS  26263.34278363 -.00000259  00000+0  12766-6 0  9991","line2":"2 56132  43.0026 127.3651 0001328 267.2821  92.7879 15.27570895191979","mean_motion":15.27570895,"eccentricity":0.0001328,"inclination_deg":43.0026,"raan_deg":127.3651,"arg_perigee_deg":267.2821,"mean_anomaly_deg":92.7879,"bstar":1.2766e-7,"rev_number":19197,"period_min":94.267310585281,"perigee_km":482.16519068639,"apogee_km":483.98752895476,"semimajor_km":6861.2133598206,"source":"CELESTRAK","updated_at":"2026-09-21T09:00:33.388294Z"}}}